Jendouba, Tunisia

7:18 PM CET on October 19, 2019 (GMT +0100)
Jendouba

Weather History for DTTN - August, 2019

Change the Weather History Date:

Wednesday, August 7, 2019

  Actual Average (WUND) Record (WUND)
Temperature  
Mean Temperature 100 °F -  
Max Temperature 115 °F 95 °F - (-1)
Min Temperature 84 °F 65 °F - (-1)
Cooling Degree Days 34    
Growing Degree Days 50 (Base 50)    
Moisture  
Dew Point 46 °F    
Average Humidity 17    
Maximum Humidity 31    
Minimum Humidity 4    
Precipitation  
Precipitation 0.00 in 0.02 in - ()
Sea Level Pressure  
Sea Level Pressure 29.86 in    
Wind  
Wind Speed 10 mph ()    
Max Wind Speed 18 mph    
Max Gust Speed -    
Visibility 6.0 miles    
Events      
Averages and records for this station are not official NWS values.
T = Trace of Precipitation, MM = Missing Value Source: Averaged Metar Reports

Daily Weather History Graph

Daily Weather History Graph

Search for Another Location

Airport or City:

Astronomy

Aug. 07, 2019 Rise Set
Actual Time 5:35 AM CET 7:25 PM CET
Civil Twilight 5:07 AM CET 7:53 PM CET
Nautical Twilight 4:33 AM CET 8:26 PM CET
Astronomical Twilight 3:57 AM CET 9:02 PM CET
Moon 12:37 PM CET (8/7) 11:47 PM CET (8/7)
Length of Visible Light 14h 45m
Length of Day
13h 49m
Waxing Crescent, 47% of the Moon is Illuminated
Aug 7
Waxing Crescent
Aug 7
First Quarter
Aug 15
Full
Aug 23
Last Quarter
Aug 30
New

Hourly Weather History & Observations

Time (CET) Temp. Heat Index Dew Point Humidity Pressure Visibility Wind Dir Wind Speed Gust Speed Precip Events Conditions
12:00 AM 91.4 °F - 51.8 °F 26% 29.92 in 5.0 mi WSW 11.5 mph - N/A   Scattered Clouds
1:00 AM 91 °F - 51 °F 16% 29.87 in 5 mi WSW 18.4 mph - -   Mostly Cloudy
1:00 AM 91.4 °F - 51.8 °F 26% 29.89 in 5.0 mi WSW 18.4 mph - N/A   Scattered Clouds
2:00 AM 87.8 °F - 48.2 °F 25% 29.86 in 5.0 mi SSW 4.6 mph - N/A   Scattered Clouds
3:00 AM 86.0 °F - 50.0 °F 29% 29.86 in 5.0 mi SW 4.6 mph - N/A   Scattered Clouds
4:00 AM 85 °F - 51 °F 21% 29.85 in 5 mi SW 11.5 mph - -   Mostly Cloudy
4:00 AM 86.0 °F - 51.8 °F 31% 29.86 in 5.0 mi SSW 10.4 mph - N/A   Scattered Clouds
5:00 AM 86.0 °F - 51.8 °F 31% 29.86 in 5.0 mi SW 12.7 mph - N/A   Scattered Clouds
6:00 AM 86.0 °F - 51.8 °F 31% 29.86 in 6.2 mi SW 12.7 mph - N/A   Partly Cloudy
7:00 AM 89 °F - 52 °F 19% 29.87 in 9 mi SW 11.5 mph - -   Scattered Clouds
7:00 AM 89.6 °F - 51.8 °F 27% 29.89 in 6.2 mi SW 12.7 mph - N/A   Partly Cloudy
8:00 AM 91.4 °F 89.1 °F 53.6 °F 28% 29.89 in 6.2 mi SW 12.7 mph - N/A   Partly Cloudy
9:00 AM 96.8 °F - 51.8 °F 22% 29.89 in 6.2 mi SW 11.5 mph - N/A   Partly Cloudy
10:00 AM 102 °F - 51 °F 10% 29.86 in 9 mi SSW 13.8 mph - -   Scattered Clouds
10:00 AM 102.2 °F - 50.0 °F 17% 29.89 in 6.2 mi SSW 13.8 mph - N/A   Partly Cloudy
11:00 AM 109.4 °F - 44.6 °F 11% 29.86 in 6.2 mi WSW 10.4 mph - N/A   Partly Cloudy
12:00 PM 111.2 °F - 39.2 °F 9% 29.86 in 6.2 mi West 9.2 mph - N/A   Partly Cloudy
1:00 PM 114 °F - 39 °F 4% 29.80 in 9 mi West 6.9 mph - -   Scattered Clouds
1:00 PM 114.8 °F - 39.2 °F 8% 29.83 in 6.2 mi West 6.9 mph - N/A   Partly Cloudy
2:00 PM 113.0 °F - 33.8 °F 7% 29.83 in 6.2 mi NNW 10.4 mph - N/A   Partly Cloudy
4:00 PM 112 °F - 40 °F 4% 29.76 in 6 mi North 11.5 mph - -   Partly Cloudy
4:00 PM 111.2 °F - 39.2 °F 9% 29.80 in 6.2 mi North 11.5 mph - N/A   Scattered Clouds
5:00 PM 109.4 °F - 37.4 °F 9% 29.80 in 6.2 mi North 12.7 mph - N/A   Scattered Clouds
6:00 PM 105.8 °F - 35.6 °F 9% 29.83 in 6.2 mi NNW 9.2 mph - N/A   Scattered Clouds
7:00 PM 103 °F - 39 °F 5% 29.83 in 6 mi NE 3.5 mph - -   Scattered Clouds
7:00 PM 104.0 °F - 39.2 °F 11% 29.86 in 6.2 mi NE 3.5 mph - N/A   Partly Cloudy
8:00 PM 100.4 °F - 42.8 °F 14% 29.86 in 6.2 mi NNW 6.9 mph - N/A   Partly Cloudy
9:00 PM 96.8 °F - 44.6 °F 17% 29.89 in 5.0 mi West 4.6 mph - N/A   Partly Cloudy
10:00 PM 96 °F - 44 °F 9% 29.88 in 5 mi WSW 4.6 mph - -   Scattered Clouds
10:00 PM 95.0 °F - 44.6 °F 18% 29.92 in - North - - N/A   Partly Cloudy
11:00 PM 87.8 °F - 44.6 °F 22% 29.92 in 5.0 mi SSW 4.6 mph - N/A   Partly Cloudy